When you browse on this site, cookies collect data to enhance your experience and personalize the content and advertising you see.
Visit our Privacy Policy to learn more. By continuing to use the site, you agree to this use of cookies and data.
  • Em Portugal
  • Lista de países
  • Para 7 dias
  • Temperatura da água
  • Mapa do tempo
  • Widgets de tempo
  • user-avatar
    Iniciar Sessão

    Previsão horária em Levzha

    Hoje, 2 Junho, Terça-feira

    Tempo Temperatura Precipitação Vento Pressão Humidade
    00:00 +9°C° 0 mm 5 m/s 743 mmHg 96%
    01:00 +9°C° 0 mm 5 m/s 743 mmHg 95%
    02:00 +9°C° 0 mm 5 m/s 743 mmHg 95%
    03:00 +9°C° 0 mm 5 m/s 743 mmHg 94%
    04:00 +9°C° 0 mm 5 m/s 743 mmHg 94%
    05:00 +9°C° 0 mm 5 m/s 743 mmHg 94%
    06:00 +9°C° 0 mm 5 m/s 743 mmHg 94%
    07:00 +10°C° 0.4 mm 5 m/s 743 mmHg 94%
    08:00 +10°C° 0.4 mm 5 m/s 743 mmHg 94%
    09:00 +12°C° 0.4 mm 5 m/s 744 mmHg 95%
    10:00 +12°C° 0.7 mm 5 m/s 744 mmHg 95%
    11:00 +12°C° 0.7 mm 5 m/s 744 mmHg 95%
    12:00 +13°C° 0.7 mm 5 m/s 743 mmHg 95%
    13:00 +13°C° 0.4 mm 5 m/s 744 mmHg 95%
    14:00 +13°C° 0.4 mm 5 m/s 744 mmHg 94%
    15:00 +13°C° 0.4 mm 4 m/s 744 mmHg 94%
    16:00 +13°C° 0 mm 4 m/s 744 mmHg 93%
    17:00 +13°C° 0 mm 5 m/s 743 mmHg 92%
    18:00 +14°C° 0 mm 5 m/s 743 mmHg 92%
    19:00 +13°C° 0 mm 5 m/s 743 mmHg 93%
    20:00 +13°C° 0 mm 4 m/s 743 mmHg 94%
    21:00 +12°C° 0 mm 4 m/s 744 mmHg 96%
    22:00 +12°C° 0 mm 4 m/s 743 mmHg 96%
    23:00 +12°C° 0 mm 4 m/s 743 mmHg 97%

    Amanhã, 3 Junho, Quarta-feira

    Tempo Temperatura Precipitação Vento Pressão Humidade
    00:00 +12°C° 0 mm 4 m/s 743 mmHg 97%
    01:00 +13°C° 0 mm 4 m/s 743 mmHg 97%
    02:00 +13°C° 0 mm 4 m/s 743 mmHg 96%
    03:00 +13°C° 0 mm 4 m/s 743 mmHg 96%
    04:00 +13°C° 0 mm 5 m/s 743 mmHg 95%
    05:00 +13°C° 0 mm 5 m/s 743 mmHg 95%
    06:00 +13°C° 0 mm 6 m/s 742 mmHg 94%
    07:00 +14°C° 0 mm 6 m/s 743 mmHg 91%
    08:00 +15°C° 0 mm 6 m/s 743 mmHg 89%
    09:00 +16°C° 0 mm 7 m/s 743 mmHg 86%
    10:00 +16°C° 0.3 mm 6 m/s 743 mmHg 88%
    11:00 +15°C° 0.3 mm 6 m/s 743 mmHg 91%
    12:00 +15°C° 0.3 mm 5 m/s 742 mmHg 93%
    13:00 +16°C° 0.1 mm 6 m/s 742 mmHg 90%
    14:00 +17°C° 0.1 mm 7 m/s 742 mmHg 87%
    15:00 +18°C° 0.1 mm 8 m/s 742 mmHg 85%
    16:00 +17°C° 0 mm 7 m/s 741 mmHg 85%
    17:00 +17°C° 0 mm 6 m/s 740 mmHg 86%
    18:00 +16°C° 0 mm 6 m/s 740 mmHg 87%
    19:00 +16°C° 0.3 mm 7 m/s 740 mmHg 87%
    20:00 +16°C° 0.3 mm 8 m/s 740 mmHg 87%
    21:00 +16°C° 0.3 mm 9 m/s 740 mmHg 87%
    22:00 +16°C° 1.3 mm 8 m/s 740 mmHg 89%
    23:00 +15°C° 1.3 mm 8 m/s 740 mmHg 91%

    Depois de amanhã, 4 Junho, Quinta-feira

    Tempo Temperatura Precipitação Vento Pressão Humidade
    00:00 +15°C° 1.3 mm 7 m/s 739 mmHg 94%
    01:00 +15°C° 3.9 mm 7 m/s 739 mmHg 94%
    02:00 +15°C° 3.9 mm 6 m/s 739 mmHg 95%
    03:00 +15°C° 3.9 mm 6 m/s 740 mmHg 96%
    04:00 +15°C° 0.8 mm 6 m/s 740 mmHg 95%
    05:00 +15°C° 0.8 mm 6 m/s 739 mmHg 95%
    06:00 +14°C° 0.8 mm 6 m/s 739 mmHg 95%
    07:00 +15°C° 0.4 mm 5 m/s 740 mmHg 94%
    08:00 +17°C° 0.4 mm 4 m/s 740 mmHg 93%
    09:00 +18°C° 0.4 mm 3 m/s 740 mmHg 92%
    10:00 +18°C° 0.3 mm 3 m/s 740 mmHg 90%
    11:00 +19°C° 0.3 mm 3 m/s 740 mmHg 88%
    12:00 +20°C° 0.3 mm 2 m/s 740 mmHg 87%
    13:00 +20°C° 2 mm 2 m/s 740 mmHg 86%
    14:00 +22°C° 2 mm 1 m/s 740 mmHg 85%
    15:00 +22°C° 2 mm 1 m/s 740 mmHg 84%
    16:00 +22°C° 1.7 mm 1 m/s 740 mmHg 86%
    17:00 +21°C° 1.7 mm 1 m/s 740 mmHg 87%
    18:00 +21°C° 1.7 mm 1 m/s 740 mmHg 88%
    19:00 +20°C° 0.2 mm 1 m/s 740 mmHg 89%
    20:00 +19°C° 0.2 mm 1 m/s 740 mmHg 90%
    21:00 +17°C° 0.2 mm 2 m/s 741 mmHg 92%
    22:00 +16°C° 0 mm 2 m/s 741 mmHg 92%
    23:00 +16°C° 0 mm 2 m/s 741 mmHg 93%

    5 Junho, Sexta-feira

    Tempo Temperatura Precipitação Vento Pressão Humidade
    00:00 +15°C° 0 mm 2 m/s 741 mmHg 94%
    01:00 +15°C° 0 mm 2 m/s 741 mmHg 94%
    02:00 +14°C° 0 mm 2 m/s 741 mmHg 95%
    03:00 +14°C° 0 mm 2 m/s 741 mmHg 95%
    04:00 +15°C° 0 mm 2 m/s 742 mmHg 95%
    05:00 +15°C° 0 mm 2 m/s 742 mmHg 95%
    06:00 +16°C° 0 mm 1 m/s 742 mmHg 95%
    07:00 +18°C° 0 mm 1 m/s 742 mmHg 92%
    08:00 +19°C° 0 mm 1 m/s 742 mmHg 90%
    09:00 +20°C° 0 mm 1 m/s 742 mmHg 88%
    10:00 +21°C° 0.2 mm 1 m/s 742 mmHg 85%
    11:00 +21°C° 0.2 mm 1 m/s 742 mmHg 82%
    12:00 +22°C° 0.2 mm 1 m/s 742 mmHg 79%
    13:00 +23°C° 0.5 mm 1 m/s 742 mmHg 78%
    14:00 +23°C° 0.5 mm 1 m/s 742 mmHg 77%
    15:00 +23°C° 0.5 mm 1 m/s 742 mmHg 76%
    16:00 +21°C° 1.4 mm 3 m/s 742 mmHg 81%
    17:00 +19°C° 1.4 mm 4 m/s 742 mmHg 86%
    18:00 +16°C° 1.4 mm 6 m/s 742 mmHg 91%
    19:00 +17°C° 0 mm 4 m/s 742 mmHg 92%
    20:00 +16°C° 0 mm 3 m/s 742 mmHg 94%
    21:00 +15°C° 0 mm 1 m/s 742 mmHg 96%
    22:00 +14°C° 0 mm 1 m/s 742 mmHg 96%
    23:00 +14°C° 0 mm 2 m/s 743 mmHg 96%

    6 Junho, Sábado

    Tempo Temperatura Precipitação Vento Pressão Humidade
    00:00 +14°C° 0 mm 2 m/s 743 mmHg 96%
    01:00 +13°C° 0 mm 2 m/s 743 mmHg 96%
    02:00 +13°C° 0 mm 2 m/s 743 mmHg 96%
    03:00 +13°C° 0 mm 2 m/s 743 mmHg 96%
    04:00 +13°C° 0 mm 2 m/s 743 mmHg 95%
    05:00 +14°C° 0 mm 2 m/s 744 mmHg 94%
    06:00 +15°C° 0 mm 1 m/s 744 mmHg 93%
    07:00 +16°C° 0 mm 1 m/s 744 mmHg 88%
    08:00 +19°C° 0 mm 1 m/s 744 mmHg 83%
    09:00 +20°C° 0 mm 1 m/s 745 mmHg 78%
    10:00 +21°C° 0 mm 1 m/s 745 mmHg 74%
    11:00 +22°C° 0 mm 1 m/s 745 mmHg 70%
    12:00 +23°C° 0 mm 1 m/s 745 mmHg 66%
    13:00 +21°C° 0.1 mm 0 m/s 745 mmHg 65%
    14:00 +21°C° 0.1 mm 0 m/s 745 mmHg 65%
    15:00 +21°C° 0.1 mm 0 m/s 745 mmHg 65%
    16:00 +23°C° 0.1 mm 1 m/s 745 mmHg 68%
    17:00 +23°C° 0.1 mm 1 m/s 745 mmHg 72%
    18:00 +23°C° 0.1 mm 1 m/s 745 mmHg 75%
    19:00 +20°C° 0 mm 2 m/s 745 mmHg 82%
    20:00 +18°C° 0 mm 3 m/s 746 mmHg 88%
    21:00 +15°C° 0 mm 4 m/s 746 mmHg 95%
    22:00 +14°C° 0 mm 4 m/s 746 mmHg 95%
    23:00 +13°C° 0 mm 4 m/s 746 mmHg 96%

    7 Junho, Domingo

    Tempo Temperatura Precipitação Vento Pressão Humidade
    00:00 +13°C° 0 mm 3 m/s 746 mmHg 96%
    01:00 +12°C° 0 mm 3 m/s 746 mmHg 96%
    02:00 +12°C° 0 mm 3 m/s 747 mmHg 97%
    03:00 +11°C° 0 mm 3 m/s 747 mmHg 97%
    04:00 +12°C° 0 mm 3 m/s 747 mmHg 96%
    05:00 +13°C° 0 mm 4 m/s 747 mmHg 95%
    06:00 +13°C° 0 mm 4 m/s 747 mmHg 94%
    07:00 +14°C° 0 mm 4 m/s 747 mmHg 91%
    08:00 +17°C° 0 mm 4 m/s 747 mmHg 89%
    09:00 +18°C° 0 mm 4 m/s 747 mmHg 87%
    10:00 +19°C° 0 mm 4 m/s 748 mmHg 83%
    11:00 +20°C° 0 mm 4 m/s 748 mmHg 80%
    12:00 +22°C° 0 mm 4 m/s 748 mmHg 77%
    13:00 +22°C° 0.1 mm 4 m/s 747 mmHg 76%
    14:00 +22°C° 0.1 mm 4 m/s 747 mmHg 75%
    15:00 +23°C° 0.1 mm 4 m/s 747 mmHg 74%
    16:00 +22°C° 0.5 mm 4 m/s 747 mmHg 77%
    17:00 +22°C° 0.5 mm 3 m/s 747 mmHg 80%
    18:00 +22°C° 0.5 mm 3 m/s 747 mmHg 84%
    19:00 +20°C° 0.1 mm 3 m/s 747 mmHg 86%
    20:00 +19°C° 0.1 mm 4 m/s 747 mmHg 89%
    21:00 +17°C° 0.1 mm 4 m/s 747 mmHg 92%
    22:00 +17°C° 0 mm 4 m/s 747 mmHg 93%
    23:00 +15°C° 0 mm 4 m/s 747 mmHg 94%
    Mostrar mais